Weather in Utena

Lithuania     55°29′52″N   25°36′52″E
temp.,
°C
wind,
m/s
gust,
m/s
humid.,
%
clouds,
%
prec.,
mm/h
press.,
hPa
HPBL,
m
28 july, wed
wed2800:00+18s379796 0.0 1012163
03:00+17ssw3596100 0.0 101193
06:00+17wsw35975 0.0 1011104
09:00+21w35792 0.0 1011395
12:00+25wsw456156 0.0 10111009
15:00+27wsw565062 0.0 10101714
18:00+26wsw465317 0.0 10101853
21:00+21wsw35704 0.0 100985
29 july, thu
thu2900:00+18sw227460 0.0 100911
03:00+19ssw3874100 0.0 1009162
06:00+18sw51192100 0.3 1008344
09:00+20wsw578896 0.5 1008521
12:00+24wsw56605 0.0 10081216
15:00+26wsw674937 0.0 10072058
18:00+22wnw486227 0.0 1007336
21:00+20wsw347288 0.0 1007106
30 july, fri
fri3000:00+18wsw367787 0.1 1008133
03:00+15wsw38885 0.1 1008174
06:00+13sw379270 0.0 1008125
09:00+19sw51070100 0.3 10071211
12:00+22wsw8144689 0.1 10072320
15:00+22wsw81446100 0.1 10062559
18:00+20sw7125423 0.0 10051043
21:00+18sw5126214 0.0 1004421
31 july, sat
sat3100:00+15sw512711 0.0 1004315
03:00+15wsw7156824 0.0 1005580
06:00+14sw613745 0.0 1005395
09:00+17sw61068100 0.0 1006530
12:00+22wsw6848100 0.0 10061169
15:00+23sw5750100 0.0 10051138
18:00+21sw4864100 0.0 1004583
21:00+18sw4108887 0.4 1003356
1 august, sun
sun100:00+16ssw3797100 0.5 1004139
03:00+14wsw37951 0.5 1005128
06:00+12sw412940 0.0 1005273
09:00+17sw611800 0.0 1006646
12:00+20wsw7963100 0.1 10071340
15:00+20wsw5867100 0.3 10081140
18:00+20wsw4869100 0.1 1008767
21:00+17wsw2280100 0.1 100818